Weather History for KPMP - September, 2014

Change the Weather History Date:

Friday, September 12, 2014

  Actual Average (KFLL) Record (KFLL)
Temperature  
Mean Temperature 80 °F 83 °F  
Max Temperature 88 °F 89 °F 99 °F (1935)
Min Temperature 73 °F 78 °F 69 °F (1981)
Degree Days  
Heating Degree Days 0 0  
Month to date heating degree days 0  
Since 1 July heating degree days 0  
Cooling Degree Days 14 18  
Month to date cooling degree days 222  
Year to date cooling degree days 3388  
Growing Degree Days 30 (Base 50)    
Moisture  
Dew Point 71 °F    
Average Humidity 78    
Maximum Humidity 94    
Minimum Humidity 59    
Precipitation  
Precipitation 0.21 in 0.28 in 3.40 in (1954)
Month to date precipitation 3.36  
Year to date precipitation 44.43  
Snow  
Snow 0.00 in - - ()
Month to date snowfall  
Since 1 July snowfall  
Since 1 September snowfall  
Snow Depth -    
Sea Level Pressure  
Sea Level Pressure 29.97 in    
Wind  
Wind Speed 10 mph (South)    
Max Wind Speed 24 mph    
Max Gust Speed 33 mph    
Visibility 8 miles    
Events Rain , Thunderstorm    
T = Trace of Precipitation, MM = Missing Value Source: NWS Daily Summary

Daily Weather History Graph

Daily Weather History Graph

Search for Another Location

Airport or City:

Trip Planner

Search our weather history database for the weather conditions in past years. The results will help you decide how hot, cold, wet, or windy it might be!

Date:

Astronomy

Sep. 12, 2014 Rise Set
Actual Time 7:04 AM EDT 7:28 PM EDT
Civil Twilight 6:41 AM EDT 7:51 PM EDT
Nautical Twilight 6:14 AM EDT 8:18 PM EDT
Astronomical Twilight 5:47 AM EDT 8:45 PM EDT
Moon 10:14 PM EDT (9/12) 10:41 AM EDT (9/12)
Length of Visible Light 13h 09m
Length of Day
12h 23m
Waning Gibbous, 83% of the Moon is Illuminated
Sep 12
Waning Gibbous
Sep 15
Last Quarter
Sep 24
New
Oct 1
First Quarter
Oct 8
Full

Hourly Weather History & Observations

Time (EDT) Temp. Heat Index Dew Point Humidity Pressure Visibility Wind Dir Wind Speed Gust Speed Precip Events Conditions
12:53 AM 75.0 °F - 73.0 °F 94% 29.98 in 4.0 mi WSW 6.9 mph - 0.02 in Rain Light Rain
12:59 AM 75.0 °F - 73.0 °F 94% 29.97 in 2.5 mi SW 6.9 mph - 0.01 in Rain Rain
1:53 AM 75.0 °F - 73.0 °F 94% 29.95 in 7.0 mi SSW 9.2 mph - 0.02 in   Mostly Cloudy
2:53 AM 73.9 °F - 72.0 °F 93% 29.94 in 1.8 mi SW 12.7 mph - 0.06 in Rain Rain
3:00 AM 73.9 °F - 72.0 °F 93% 29.93 in 3.0 mi SW 8.1 mph - 0.01 in Rain Light Rain
3:53 AM 75.0 °F - 73.0 °F 94% 29.94 in 5.0 mi SSW 5.8 mph - 0.01 in Rain Light Rain
5:53 AM 75.0 °F - 73.0 °F 94% 29.94 in 5.0 mi SSW 11.5 mph - 0.03 in Rain Light Rain
6:07 AM 75.0 °F - 73.0 °F 94% 29.93 in 7.0 mi South 8.1 mph - 0.00 in Rain Light Rain
6:53 AM 73.0 °F - 71.1 °F 93% 29.95 in 5.0 mi SSW 10.4 mph - 0.03 in Rain Light Rain
7:26 AM 73.0 °F - 70.0 °F 90% 29.95 in 10.0 mi SW 11.5 mph - 0.00 in Thunderstorm Overcast
7:41 AM 73.0 °F - 70.0 °F 90% 29.94 in 10.0 mi SW 13.8 mph - 0.00 in   Overcast
7:53 AM 73.9 °F - 70.0 °F 87% 29.95 in 10.0 mi SSW 10.4 mph - 0.00 in Thunderstorm Mostly Cloudy
8:10 AM 73.9 °F - 71.1 °F 91% 29.95 in 10.0 mi South 9.2 mph - N/A   Mostly Cloudy
8:53 AM 77.0 °F - 71.1 °F 82% 29.97 in 10.0 mi SW 11.5 mph - N/A   Scattered Clouds
9:53 AM 81.0 °F 84.4 °F 70.0 °F 69% 29.99 in 10.0 mi SSW 13.8 mph - N/A   Scattered Clouds
10:53 AM 82.0 °F 85.5 °F 69.1 °F 65% 30.00 in 10.0 mi SW 16.1 mph 20.7 mph N/A   Scattered Clouds
11:53 AM 84.9 °F 88.8 °F 69.1 °F 59% 30.00 in 10.0 mi South 12.7 mph - N/A   Scattered Clouds
12:53 PM 86.0 °F 90.7 °F 70.0 °F 59% 30.00 in 10.0 mi SE 13.8 mph - N/A   Mostly Cloudy
1:53 PM 84.9 °F 89.4 °F 70.0 °F 61% 29.97 in 10.0 mi SE 17.3 mph - N/A   Scattered Clouds
2:53 PM 84.9 °F 92.1 °F 73.9 °F 69% 29.98 in 10.0 mi SSE 24.2 mph 33.4 mph N/A   Scattered Clouds
3:53 PM 81.0 °F 84.9 °F 71.1 °F 72% 29.95 in 10.0 mi SW 8.1 mph - 0.00 in   Scattered Clouds
4:53 PM 84.0 °F 89.0 °F 71.1 °F 65% 29.95 in 10.0 mi ESE 8.1 mph - N/A   Scattered Clouds
5:53 PM 84.0 °F 89.0 °F 71.1 °F 65% 29.97 in 10.0 mi ESE 13.8 mph - N/A   Scattered Clouds
6:53 PM 82.9 °F 86.5 °F 69.1 °F 63% 29.97 in 10.0 mi ESE 8.1 mph - N/A   Scattered Clouds
7:53 PM 82.0 °F 85.5 °F 69.1 °F 65% 29.94 in 10.0 mi South 11.5 mph - N/A   Clear
8:53 PM 82.0 °F 86.3 °F 71.1 °F 69% 29.98 in 10.0 mi ESE 4.6 mph - N/A   Clear
9:42 PM 82.9 °F 87.5 °F 71.1 °F 67% 30.00 in 10.0 mi ESE 12.7 mph - N/A   Mostly Cloudy
9:53 PM 82.9 °F 88.0 °F 72.0 °F 69% 30.01 in 10.0 mi East 13.8 mph - N/A   Scattered Clouds
10:25 PM 80.1 °F 84.2 °F 73.0 °F 79% 30.01 in 9.0 mi East 13.8 mph 25.3 mph 0.01 in   Mostly Cloudy
10:42 PM 80.1 °F 84.5 °F 73.9 °F 81% 30.02 in 4.0 mi East 10.4 mph - 0.03 in Rain Light Rain
10:53 PM 79.0 °F - 71.1 °F 77% 30.02 in 8.0 mi ESE 19.6 mph 28.8 mph 0.03 in   Mostly Cloudy
11:53 PM 82.0 °F 86.7 °F 72.0 °F 71% 30.01 in 10.0 mi SSE 8.1 mph - 0.01 in   Mostly Cloudy